Location: Bronnegerveen
(52.9548°N, 6.8388°E)
Time: 02:03:35
(UTC+00:00)

Cosmos 1833 Rocket - Pass Details

Date: 15 June 2025
Orbit: 832 x 838 km, 71.0° (Epoch: 07 July)

Event Time Altitude Azimuth Distance (km) Brightness Sun altitude
Rises 01:13:46 0° 324° (NW) 3,396 6.3 -10.7°
Reaches altitude 10° 01:16:26 10° 314° (NW) 2,457 5.4 -10.5°
Maximum altitude 01:21:21 32° 254° (WSW) 1,395 3.5 -10.2°
Enters shadow 01:25:49 12° 195° (SSW) 2,294 4.3 -9.9°
